VTK519 UNNT-UNNT

Flight info

Callsign VTK519
Flight time 0h 48m
Altitude 4000
Route DCT
Aircraft B737/M-SDE3/L

Departure

Time 2026-04-27 12:09
Airport Novosibirsk Tolmachevo Airport (UNNT)

Arrival

Time 2026-04-27 12:57
Airport Novosibirsk Tolmachevo Airport (UNNT)
Time Latitude Longitude Altitude Speed Heading
2026-04-27 11:46 55.00965 82.66543 372 ft 0 kts 171°
2026-04-27 12:02 55.00977 82.66540 372 ft 3 kts 175°
2026-04-27 12:03 55.00997 82.66539 372 ft 3 kts 184°
2026-04-27 12:03 55.01017 82.66543 372 ft 3 kts 191°
2026-04-27 12:03 55.01037 82.66550 372 ft 3 kts 192°
2026-04-27 12:03 55.01053 82.66556 372 ft 3 kts 188°
2026-04-27 12:04 55.01073 82.66560 372 ft 3 kts 185°
2026-04-27 12:04 55.01094 82.66562 372 ft 3 kts 180°
2026-04-27 12:04 55.01114 82.66561 372 ft 3 kts 173°
2026-04-27 12:04 55.01125 82.66558 372 ft 0 kts 169°
2026-04-27 12:06 55.01119 82.66560 372 ft 3 kts 170°
2026-04-27 12:06 55.01086 82.66575 372 ft 6 kts 148°
2026-04-27 12:07 55.01089 82.66640 372 ft 6 kts 45°
2026-04-27 12:07 55.01128 82.66654 372 ft 6 kts 356°
2026-04-27 12:07 55.01174 82.66643 372 ft 8 kts 352°
2026-04-27 12:07 55.01233 82.66628 372 ft 9 kts 351°
2026-04-27 12:08 55.01296 82.66612 372 ft 10 kts 351°
2026-04-27 12:08 55.01362 82.66581 373 ft 10 kts 321°
2026-04-27 12:08 55.01372 82.66469 374 ft 10 kts 262°
2026-04-27 12:08 55.01332 82.66034 372 ft 75 kts 261°
2026-04-27 12:09 55.01211 82.64741 392 ft 135 kts 261°
2026-04-27 12:09 55.01057 82.63021 834 ft 150 kts 263°
2026-04-27 12:09 55.00902 82.61181 1476 ft 158 kts 263°
2026-04-27 12:09 55.00732 82.59156 1969 ft 178 kts 269°
2026-04-27 12:10 55.01000 82.57038 2323 ft 185 kts 302°
2026-04-27 12:10 55.02021 82.55730 2537 ft 191 kts 345°
2026-04-27 12:10 55.03348 82.56012 2672 ft 202 kts 24°
2026-04-27 12:10 55.04364 82.57735 2761 ft 211 kts 58°
2026-04-27 12:11 55.04827 82.60164 2849 ft 214 kts 78°
2026-04-27 12:11 55.05076 82.62744 2938 ft 216 kts 79°
2026-04-27 12:11 55.05305 82.65320 3029 ft 215 kts 79°
2026-04-27 12:11 55.05530 82.67945 3032 ft 216 kts 80°
2026-04-27 12:12 55.05760 82.70525 3032 ft 214 kts 79°
2026-04-27 12:12 55.05970 82.73094 3042 ft 214 kts 81°
2026-04-27 12:12 55.06193 82.75658 2997 ft 215 kts 78°
2026-04-27 12:12 55.06430 82.78227 3012 ft 213 kts 79°
2026-04-27 12:13 55.06646 82.80782 3017 ft 212 kts 78°
2026-04-27 12:13 55.06889 82.83304 3004 ft 210 kts 78°
2026-04-27 12:13 55.07125 82.85801 2976 ft 208 kts 78°
2026-04-27 12:13 55.07127 82.88282 3017 ft 203 kts 111°
2026-04-27 12:14 55.06289 82.90054 3034 ft 183 kts 156°
2026-04-27 12:14 55.05515 82.90458 2953 ft 170 kts 185°
2026-04-27 12:14 55.04456 82.89903 2853 ft 151 kts 216°
2026-04-27 12:14 55.03699 82.88773 2715 ft 142 kts 235°
2026-04-27 12:15 55.03201 82.87332 2566 ft 133 kts 256°
2026-04-27 12:15 55.03012 82.85806 2467 ft 133 kts 264°
2026-04-27 12:15 55.02880 82.84179 2283 ft 131 kts 266°
2026-04-27 12:15 55.02780 82.82639 2068 ft 129 kts 266°
2026-04-27 12:16 55.02667 82.81101 1872 ft 125 kts 266°
2026-04-27 12:16 55.02568 82.79615 1683 ft 123 kts 264°
2026-04-27 12:16 55.02433 82.78146 1535 ft 123 kts 263°
2026-04-27 12:16 55.02282 82.76666 1441 ft 125 kts 263°
2026-04-27 12:17 55.02153 82.75181 1326 ft 122 kts 264°
2026-04-27 12:17 55.02014 82.73736 1120 ft 120 kts 264°
2026-04-27 12:17 55.01879 82.72317 1004 ft 120 kts 265°
2026-04-27 12:17 55.01767 82.70844 811 ft 125 kts 261°
2026-04-27 12:18 55.01623 82.69309 613 ft 131 kts 260°
2026-04-27 12:18 55.01484 82.67741 418 ft 131 kts 260°
2026-04-27 12:18 55.01353 82.66238 405 ft 129 kts 262°
2026-04-27 12:18 55.01207 82.64607 800 ft 144 kts 262°
2026-04-27 12:19 55.01032 82.62769 1302 ft 162 kts 262°
2026-04-27 12:19 55.00855 82.60765 1822 ft 167 kts 262°
2026-04-27 12:19 55.00664 82.58769 2285 ft 168 kts 263°
2026-04-27 12:19 55.00473 82.56713 2693 ft 175 kts 263°
2026-04-27 12:20 55.00314 82.54597 3042 ft 178 kts 272°
2026-04-27 12:20 55.00753 82.52594 3034 ft 184 kts 314°
2026-04-27 12:20 55.01921 82.51700 3027 ft 193 kts 355°
2026-04-27 12:20 55.03195 82.52430 3022 ft 200 kts 35°
2026-04-27 12:21 55.03954 82.54388 2979 ft 203 kts 73°
2026-04-27 12:21 55.04036 82.56864 2982 ft 199 kts 84°
2026-04-27 12:21 55.04223 82.59206 3031 ft 196 kts 79°
2026-04-27 12:21 55.04441 82.61575 3047 ft 201 kts 78°
2026-04-27 12:22 55.04683 82.63995 3077 ft 203 kts 76°
2026-04-27 12:22 55.05037 82.66407 3022 ft 206 kts 72°
2026-04-27 12:22 55.05417 82.68803 3030 ft 203 kts 71°
2026-04-27 12:22 55.05808 82.71161 2971 ft 203 kts 73°
2026-04-27 12:23 55.06086 82.73564 2977 ft 206 kts 78°
2026-04-27 12:23 55.06315 82.76015 3020 ft 204 kts 78°
2026-04-27 12:23 55.06520 82.78455 3023 ft 203 kts 84°
2026-04-27 12:23 55.06317 82.80899 2998 ft 203 kts 116°
2026-04-27 12:24 55.05414 82.82669 2981 ft 198 kts 155°
2026-04-27 12:24 55.04112 82.83071 2919 ft 191 kts 197°
2026-04-27 12:24 55.03007 82.81909 2804 ft 182 kts 234°
2026-04-27 12:24 55.02501 82.79994 2445 ft 171 kts 265°
2026-04-27 12:25 55.02391 82.77961 2078 ft 165 kts 262°
2026-04-27 12:25 55.02209 82.76081 1804 ft 154 kts 262°
2026-04-27 12:25 55.02063 82.74288 1554 ft 144 kts 262°
2026-04-27 12:25 55.01914 82.72637 1260 ft 132 kts 262°
2026-04-27 12:26 55.01778 82.71082 988 ft 130 kts 260°
2026-04-27 12:26 55.01642 82.69523 724 ft 130 kts 258°
2026-04-27 12:26 55.01504 82.67950 434 ft 133 kts 258°
2026-04-27 12:26 55.01367 82.66427 382 ft 122 kts 261°
2026-04-27 12:27 55.01215 82.64733 801 ft 155 kts 261°
2026-04-27 12:27 55.01023 82.62782 1494 ft 167 kts 262°
2026-04-27 12:27 55.00831 82.60785 2101 ft 171 kts 263°
2026-04-27 12:27 55.00638 82.58725 2637 ft 175 kts 263°
2026-04-27 12:28 55.00461 82.56600 2988 ft 179 kts 263°
2026-04-27 12:28 55.00393 82.54431 2995 ft 181 kts 278°
2026-04-27 12:28 55.00795 82.52356 3019 ft 181 kts 299°
2026-04-27 12:28 55.01611 82.50732 3022 ft 179 kts 321°
2026-04-27 12:29 55.02728 82.49771 2983 ft 181 kts 342°
2026-04-27 12:29 55.03983 82.49635 2963 ft 184 kts
2026-04-27 12:29 55.05209 82.50299 2936 ft 187 kts 24°
2026-04-27 12:29 55.06222 82.51734 2920 ft 191 kts 47°
2026-04-27 12:30 55.06862 82.53764 2928 ft 194 kts 69°
2026-04-27 12:30 55.07146 82.56069 2981 ft 195 kts 78°
2026-04-27 12:30 55.07363 82.58411 3013 ft 197 kts 78°
2026-04-27 12:30 55.07586 82.60777 3024 ft 198 kts 79°
2026-04-27 12:31 55.07803 82.63166 3013 ft 200 kts 78°
2026-04-27 12:31 55.08025 82.65552 3032 ft 199 kts 79°
2026-04-27 12:31 55.08241 82.67949 3024 ft 200 kts 79°
2026-04-27 12:31 55.08460 82.70354 3023 ft 200 kts 78°
2026-04-27 12:32 55.08683 82.72751 3035 ft 200 kts 79°
2026-04-27 12:32 55.08896 82.75155 3031 ft 200 kts 79°
2026-04-27 12:32 55.09107 82.77548 3020 ft 200 kts 79°
2026-04-27 12:32 55.09330 82.79941 3021 ft 200 kts 78°
2026-04-27 12:33 55.09547 82.82338 3025 ft 200 kts 83°
2026-04-27 12:33 55.09450 82.84753 3010 ft 202 kts 104°
2026-04-27 12:33 55.08890 82.87004 2997 ft 203 kts 125°
2026-04-27 12:33 55.07909 82.88821 2989 ft 204 kts 146°
2026-04-27 12:34 55.06680 82.89887 3011 ft 199 kts 169°
2026-04-27 12:34 55.05328 82.90073 2999 ft 193 kts 192°
2026-04-27 12:34 55.04086 82.89330 2945 ft 188 kts 218°
2026-04-27 12:34 55.03250 82.87691 2921 ft 174 kts 249°
2026-04-27 12:35 55.02945 82.85735 2760 ft 163 kts 264°
2026-04-27 12:35 55.02833 82.83825 2642 ft 153 kts 268°
2026-04-27 12:35 55.02731 82.82017 2473 ft 148 kts 266°
2026-04-27 12:35 55.02583 82.80228 2229 ft 146 kts 263°
2026-04-27 12:36 55.02449 82.78520 2046 ft 141 kts 265°
2026-04-27 12:36 55.02308 82.76888 1826 ft 131 kts 263°
2026-04-27 12:36 55.02161 82.75310 1553 ft 134 kts 264°
2026-04-27 12:36 55.02022 82.73682 1298 ft 137 kts 263°
2026-04-27 12:37 55.01872 82.72050 1036 ft 136 kts 263°
2026-04-27 12:37 55.01725 82.70421 774 ft 137 kts 263°
2026-04-27 12:37 55.01581 82.68754 556 ft 139 kts 260°
2026-04-27 12:37 55.01429 82.67092 376 ft 132 kts 261°
2026-04-27 12:38 55.01294 82.65598 420 ft 130 kts 261°
2026-04-27 12:38 55.01153 82.63942 746 ft 141 kts 262°
2026-04-27 12:38 55.01016 82.62232 1140 ft 146 kts 263°
2026-04-27 12:38 55.00871 82.60439 1577 ft 150 kts 264°
2026-04-27 12:39 55.00731 82.58585 1939 ft 160 kts 264°
2026-04-27 12:39 55.00577 82.56619 2315 ft 171 kts 264°
2026-04-27 12:39 55.00620 82.54526 2732 ft 177 kts 288°
2026-04-27 12:39 55.01287 82.52718 2903 ft 183 kts 318°
2026-04-27 12:40 55.02433 82.51750 2989 ft 188 kts 347°
2026-04-27 12:40 55.03741 82.51873 3016 ft 193 kts 13°
2026-04-27 12:40 55.04911 82.53049 3003 ft 199 kts 40°
2026-04-27 12:40 55.05664 82.55086 2969 ft 205 kts 70°
2026-04-27 12:41 55.05933 82.57530 2979 ft 204 kts 79°
2026-04-27 12:41 55.06158 82.59954 2984 ft 202 kts 79°
2026-04-27 12:41 55.06373 82.62370 2987 ft 201 kts 79°
2026-04-27 12:41 55.06589 82.64770 3006 ft 200 kts 79°
2026-04-27 12:42 55.06800 82.67153 3004 ft 199 kts 79°
2026-04-27 12:42 55.07015 82.69538 3003 ft 198 kts 80°
2026-04-27 12:42 55.07228 82.71923 2973 ft 199 kts 79°
2026-04-27 12:42 55.07447 82.74289 2980 ft 197 kts 78°
2026-04-27 12:43 55.07664 82.76646 2993 ft 197 kts 78°
2026-04-27 12:43 55.07884 82.79008 2987 ft 198 kts 79°
2026-04-27 12:43 55.08074 82.81378 3016 ft 197 kts 80°
2026-04-27 12:43 55.08256 82.83728 3026 ft 192 kts 79°
2026-04-27 12:44 55.08445 82.85944 3016 ft 178 kts 79°
2026-04-27 12:44 55.08627 82.88004 2956 ft 167 kts 79°
2026-04-27 12:44 55.08754 82.90005 2915 ft 167 kts 92°
2026-04-27 12:44 55.08364 82.91861 2970 ft 163 kts 131°
2026-04-27 12:45 55.07465 82.92958 2940 ft 156 kts 167°
2026-04-27 12:45 55.06427 82.93095 2965 ft 147 kts 195°
2026-04-27 12:45 55.05470 82.92546 2966 ft 144 kts 214°
2026-04-27 12:45 55.04700 82.91482 2985 ft 140 kts 230°
2026-04-27 12:46 55.04019 82.90235 2966 ft 143 kts 236°
2026-04-27 12:46 55.03498 82.88774 2931 ft 142 kts 249°
2026-04-27 12:46 55.03219 82.87146 2814 ft 139 kts 262°
2026-04-27 12:46 55.03073 82.85496 2658 ft 136 kts 264°
2026-04-27 12:47 55.02935 82.83867 2481 ft 136 kts 264°
2026-04-27 12:47 55.02787 82.82245 2301 ft 135 kts 263°
2026-04-27 12:47 55.02634 82.80618 2053 ft 137 kts 264°
2026-04-27 12:47 55.02495 82.78969 1812 ft 138 kts 263°
2026-04-27 12:48 55.02344 82.77309 1572 ft 138 kts 263°
2026-04-27 12:48 55.02196 82.75675 1322 ft 136 kts 262°
2026-04-27 12:48 55.02050 82.74046 1113 ft 137 kts 262°
2026-04-27 12:48 55.01903 82.72405 959 ft 137 kts 263°
2026-04-27 12:49 55.01756 82.70758 757 ft 138 kts 263°
2026-04-27 12:49 55.01607 82.69089 564 ft 139 kts 261°
2026-04-27 12:49 55.01458 82.67431 384 ft 137 kts 261°
2026-04-27 12:49 55.01322 82.65921 374 ft 116 kts 262°
2026-04-27 12:50 55.01199 82.64567 374 ft 112 kts 261°
2026-04-27 12:50 55.01073 82.63165 513 ft 124 kts 262°
2026-04-27 12:50 55.00939 82.61628 1030 ft 132 kts 262°
2026-04-27 12:50 55.00784 82.60022 1626 ft 138 kts 263°
2026-04-27 12:51 55.00626 82.58327 2263 ft 146 kts 262°
2026-04-27 12:51 55.00453 82.56542 2901 ft 154 kts 263°
2026-04-27 12:51 55.00340 82.54610 2968 ft 165 kts 278°
2026-04-27 12:51 55.00930 82.52892 2988 ft 177 kts 326°
2026-04-27 12:52 55.02142 82.52592 3040 ft 186 kts 13°
2026-04-27 12:52 55.03198 82.53914 3036 ft 195 kts 54°
2026-04-27 12:52 55.03608 82.56174 3067 ft 197 kts 79°
2026-04-27 12:52 55.03825 82.58505 3018 ft 194 kts 78°
2026-04-27 12:53 55.04264 82.63199 2762 ft 201 kts 78°
2026-04-27 12:53 55.04486 82.65631 2491 ft 204 kts 79°
2026-04-27 12:53 55.04712 82.68080 2215 ft 206 kts 78°
2026-04-27 12:54 55.04944 82.70569 1923 ft 209 kts 78°
2026-04-27 12:54 55.05190 82.73079 1631 ft 211 kts 78°
2026-04-27 12:54 55.05320 82.75586 1495 ft 205 kts 97°
2026-04-27 12:54 55.05022 82.77113 1514 ft 192 kts 125°
2026-04-27 12:55 55.03721 82.78591 1423 ft 161 kts 179°
2026-04-27 12:55 55.02997 82.78419 1371 ft 152 kts 209°
2026-04-27 12:55 55.02309 82.77231 1376 ft 136 kts 254°
2026-04-27 12:55 55.02166 82.75661 1283 ft 130 kts 266°
2026-04-27 12:56 55.02042 82.74086 1123 ft 132 kts 262°
2026-04-27 12:56 55.01923 82.72514 966 ft 130 kts 262°
2026-04-27 12:56 55.01775 82.70980 794 ft 127 kts 262°
2026-04-27 12:56 55.01639 82.69429 592 ft 132 kts 260°
2026-04-27 12:57 55.01497 82.67860 406 ft 131 kts 259°
2026-04-27 12:57 55.01367 82.66426 374 ft 95 kts 260°
2026-04-27 12:57 55.01299 82.65665 371 ft 32 kts 260°
2026-04-27 12:57 55.01268 82.65331 372 ft 22 kts 261°
2026-04-27 12:58 55.01253 82.65169 372 ft 10 kts 261°
2026-04-27 12:58 55.01227 82.65064 371 ft 10 kts 210°
2026-04-27 12:58 55.01160 82.65064 371 ft 10 kts 171°
2026-04-27 12:58 55.01094 82.65082 372 ft 9 kts 171°
2026-04-27 12:59 55.01030 82.65100 372 ft 9 kts 171°
2026-04-27 12:59 55.00969 82.65117 372 ft 9 kts 171°
2026-04-27 12:59 55.00909 82.65133 372 ft 9 kts 168°
2026-04-27 12:59 55.00883 82.65210 372 ft 8 kts 88°
2026-04-27 13:00 55.00886 82.65304 372 ft 8 kts 85°
2026-04-27 13:00 55.00894 82.65393 372 ft 7 kts 81°
2026-04-27 13:00 55.00902 82.65479 372 ft 7 kts 81°
2026-04-27 13:00 55.00909 82.65560 372 ft 7 kts 81°
2026-04-27 13:01 55.00916 82.65637 372 ft 6 kts 82°
2026-04-27 13:01 55.00923 82.65712 372 ft 7 kts 81°
2026-04-27 13:01 55.00933 82.65819 372 ft 11 kts 81°
2026-04-27 13:01 55.00945 82.65962 372 ft 12 kts 80°
2026-04-27 13:02 55.00959 82.66099 372 ft 9 kts 72°
2026-04-27 13:02 55.00980 82.66178 372 ft 6 kts 65°
2026-04-27 13:02 55.00996 82.66254 372 ft 7 kts 70°
2026-04-27 13:02 55.01012 82.66334 372 ft 7 kts 70°
2026-04-27 13:03 55.01028 82.66412 372 ft 7 kts 70°
2026-04-27 13:03 55.01043 82.66485 372 ft 6 kts 79°
2026-04-27 13:03 55.01026 82.66526 372 ft 4 kts 159°
2026-04-27 13:03 55.01002 82.66533 372 ft 3 kts 171°
2026-04-27 13:04 55.00979 82.66540 372 ft 3 kts 171°
2026-04-27 13:04 55.00968 82.66543 372 ft 0 kts 171°
2026-04-27 13:05 55.04407 82.78173 1494 ft 173 kts 152°